Flag for Austria Weather past 2 weeks in Linz, Upper Austria, Austria

Now
72 °F

Partly sunny.


Feels Like: 74 °F
Forecast: 64 / 69 °F
Wind: 10 mph from West

Location: Linz / Hoersching-Flughafen

Current Time: Jul 30, 2014 at 8:20:56 PM

Latest Report: Jul 30, 2014 at 7:50 PM


Visibility: N/A

Pressure: 29.77 "Hg

Humidity: 73%

Dew point: 63 °F

Location of LinzLocation

Historic Weather in Linz — Graph

°F

Linz temperature yesterday

Maximum temperature yesterday: 79 °F (at 5:20 PM)
Minimum temperature yesterday: 63 °F (at 1:20 AM)
Average temperature yesterday: 70 °F

Past Weeks' High & Low Weather Summary

 TemperatureHumidityPressure
High95 °F (Jul 20, 4:50 PM)100% (Jul 18, 3:50 AM)30.18 "Hg (Jul 18, 3:50 AM)
Low52 °F (Jul 24, 5:20 AM)23% (Jul 20, 4:50 PM)29.68 "Hg (Jul 29, 6:20 PM)
Average70 °F72%29.94 "Hg
* Reported Jul 15 6:20 PM — Jul 30 6:50 PM, Linz, Weather by CustomWeather, © 2014

Note: Actual official high and low records may vary slightly from our data, if they occured in-between our weather recording intervals... More about our weather records

Advertising

Linz weather history for previous 24 hours

 ConditionsComfort  
Time TempWeatherWind HumidityBarometerVisibility
6:50 PM
Jul 30
73 °FPartly sunny.9 mph74%29.77 "HgN/A
6:20 PM73 °FPartly sunny.10 mph74%29.77 "HgN/A
5:50 PM73 °FScattered clouds.10 mph74%29.77 "HgN/A
5:20 PM73 °FScattered clouds.3 mph74%29.77 "HgN/A
4:50 PM73 °FScattered clouds.6 mph74%29.77 "HgN/A
4:20 PM72 °FScattered clouds.5 mph73%29.77 "HgN/A
3:50 PM73 °FScattered clouds.5 mph74%29.77 "HgN/A
3:20 PM72 °FBroken clouds.7 mph78%29.77 "HgN/A
2:50 PM73 °FBroken clouds.5 mph69%29.77 "HgN/A
2:20 PM73 °FBroken clouds.3 mph69%29.77 "HgN/A
1:50 PM72 °FBroken clouds.6 mph78%29.77 "HgN/A
1:20 PM72 °FPartly sunny.5 mph73%29.77 "HgN/A
12:50 PM70 °FBroken clouds.3 mph78%29.77 "HgN/A
12:20 PM70 °FBroken clouds.6 mph83%29.77 "HgN/A
11:50 AM68 °FBroken clouds.7 mph83%29.77 "HgN/A
11:20 AM68 °FBroken clouds.8 mph83%29.77 "HgN/A
10:50 AM68 °FBroken clouds.9 mph83%29.77 "HgN/A
10:20 AM68 °FBroken clouds.7 mph83%29.77 "HgN/A
9:50 AM66 °FBroken clouds.7 mph88%29.77 "HgN/A
9:20 AM66 °FBroken clouds.8 mph88%29.74 "HgN/A
8:50 AM64 °FBroken clouds.8 mph94%29.74 "HgN/A
8:20 AM64 °FBroken clouds.7 mph94%29.74 "HgN/A
7:50 AM64 °FPartly sunny.7 mph94%29.74 "HgN/A
7:20 AM64 °FPartly sunny.9 mph94%29.74 "HgN/A
6:50 AM66 °FPartly sunny.8 mph94%29.74 "HgN/A
6:20 AM66 °FPartly cloudy.7 mph94%29.74 "HgN/A
5:50 AM66 °FPartly cloudy.8 mph94%29.74 "Hg5 mi
5:20 AM66 °FPartly cloudy.8 mph88%29.71 "Hg5 mi
4:50 AM66 °FPartly cloudy.8 mph94%29.71 "Hg5 mi
4:20 AM66 °FPassing clouds.8 mph94%29.71 "Hg4 mi
3:50 AM66 °FPartly cloudy.8 mph94%29.71 "Hg4 mi
3:20 AM66 °FDrizzle. Fog.6 mph94%29.71 "Hg3 mi
2:50 AM66 °FHeavy rain. Passing clouds.6 mph100%29.71 "Hg2 mi
2:20 AM66 °FMild.10 mph100%29.74 "Hg1 mi
1:50 AM68 °FHail. Passing clouds.7 mph88%29.74 "Hg3 mi
1:20 AM68 °FPassing clouds.7 mph88%29.71 "Hg6 mi
12:50 AM68 °FSprinkles. Passing clouds.9 mph88%29.71 "HgN/A
12:20 AM70 °FRain showers. Partly cloudy.8 mph83%29.71 "HgN/A
11:50 PM
Jul 29
70 °FPassing clouds.10 mph83%29.71 "HgN/A
11:20 PM70 °FPassing clouds.8 mph83%29.71 "HgN/A
10:50 PM70 °FPartly cloudy.6 mph78%29.71 "HgN/A
10:20 PM72 °FPartly cloudy.6 mph73%29.71 "HgN/A
9:50 PM73 °FPartly cloudy.5 mph69%29.71 "HgN/A
9:20 PM73 °FBroken clouds.5 mph69%29.71 "HgN/A
8:50 PM75 °FBroken clouds.3 mph65%29.68 "HgN/A
8:20 PM75 °FBroken clouds.3 mph65%29.68 "HgN/A
Weather by CustomWeather, © 2014

See weather overviewHow to use our weather pages